Voltar ao catálogo

USA 40 R/B DEB

AtivoHEO
NORAD 23362·DEBRIS·🇺🇸 United States

Lançado Aug 8, 1989 de Cape Canaveral Space Force Station

Loading…

Próximas Passagens (próximas 24 horas)

TLE

AtualizadoSource: Space-Track

Época: Sep 14, 2026, 14:08 UTC

1 23362U 89061AJ  26257.58899146  .00005200  00000-0  48353-2 0  9994
2 23362  56.8723 322.9559 2603367 187.5005 167.8061  9.55660458256669

Acompanhe USA 40 R/B DEB em tempo real com AllMySat

Download on the App Store